TimeCST,TemperatureF,Dew PointF,Humidity,Sea Level PressureIn,VisibilityMPH,Wind Direction,Wind SpeedMPH,Gust SpeedMPH,PrecipitationIn,Events,Conditions,WindDirDegrees,DateUTC
12:53 AM,23.0,19.0,85,30.04,6.0,SSW,5.8,-,N/A,,Clear,210,2013-01-08 06:53:00
1:53 AM,24.1,19.9,84,30.06,6.0,SW,4.6,-,N/A,,Scattered Clouds,230,2013-01-08 07:53:00
2:53 AM,21.9,18.0,85,30.06,5.0,SSW,5.8,-,N/A,,Clear,210,2013-01-08 08:53:00
3:53 AM,23.0,19.0,85,30.06,6.0,SW,5.8,-,N/A,,Overcast,220,2013-01-08 09:53:00
4:53 AM,21.9,19.0,89,30.07,5.0,SSW,4.6,-,N/A,,Overcast,200,2013-01-08 10:53:00
5:53 AM,21.9,19.0,89,30.08,5.0,SW,4.6,-,N/A,,Clear,230,2013-01-08 11:53:00
6:53 AM,19.9,18.0,92,30.09,4.0,WSW,4.6,-,N/A,,Clear,240,2013-01-08 12:53:00
7:53 AM,17.1,16.0,96,30.11,1.5,SSW,3.5,-,N/A,,Clear,210,2013-01-08 13:53:00
8:02 AM,16.0,14.0,92,30.08,3.0,Calm,Calm,-,N/A,,Clear,0,2013-01-08 14:02:00
8:53 AM,17.1,16.0,96,30.12,2.0,Calm,Calm,-,N/A,,Clear,0,2013-01-08 14:53:00
9:21 AM,21.0,19.0,92,30.09,3.0,SSW,3.5,-,N/A,,Clear,200,2013-01-08 15:21:00
9:53 AM,23.0,19.9,88,30.12,3.0,SSE,3.5,-,N/A,,Clear,160,2013-01-08 15:53:00
10:53 AM,26.1,21.9,84,30.12,5.0,South,3.5,-,N/A,,Clear,170,2013-01-08 16:53:00
11:53 AM,30.0,24.1,79,30.09,5.0,South,5.8,-,N/A,,Haze,180,2013-01-08 17:53:00
12:53 PM,32.0,25.0,75,30.07,5.0,South,5.8,-,N/A,,Haze,180,2013-01-08 18:53:00
1:53 PM,30.9,25.0,79,30.05,5.0,South,4.6,-,N/A,,Haze,170,2013-01-08 19:53:00
2:53 PM,34.0,25.0,70,30.05,5.0,SE,4.6,-,N/A,,Haze,130,2013-01-08 20:53:00
3:53 PM,34.0,26.1,73,30.03,5.0,SSE,9.2,-,N/A,,Haze,150,2013-01-08 21:53:00
4:53 PM,30.0,24.1,79,30.01,6.0,SE,6.9,-,N/A,,Haze,140,2013-01-08 22:53:00
5:53 PM,28.9,24.1,82,29.98,5.0,SSE,6.9,-,N/A,,Haze,160,2013-01-08 23:53:00
6:53 PM,33.1,27.0,78,29.96,6.0,South,10.4,-,N/A,,Haze,180,2013-01-09 00:53:00
7:53 PM,36.0,28.0,73,29.94,7.0,South,12.7,-,N/A,,Overcast,180,2013-01-09 01:53:00
8:53 PM,37.0,28.9,73,29.92,8.0,South,11.5,-,N/A,,Overcast,190,2013-01-09 02:53:00
9:53 PM,39.0,28.9,67,29.90,10.0,SSW,18.4,-,N/A,,Overcast,210,2013-01-09 03:53:00
10:53 PM,37.9,28.9,70,29.90,9.0,SSW,18.4,26.5,N/A,,Overcast,210,2013-01-09 04:53:00
11:53 PM,37.9,28.9,70,29.86,9.0,SSW,13.8,21.9,N/A,,Clear,200,2013-01-09 05:53:00